Погода в Шуарсоле

Россия / Республика Марий Эл     56°47′22″N   48°11′56″E
темп.,
°C
ветер,
м/с
пор.,
м/с
влажн.,
%
обл.,
%
осадки,
мм/ч
давл.,
гПа
погр.,
м
10 мая, пн
пн1000:00+13ююв3109287 1.4 1013233
03:00+12ююз1192100 1.4 101511
06:00+13юз2387100 0.0 101876
09:00+16св2474100 0.0 1018380
12:00+16ссв2482100 0.1 1020132
15:00+17с657589 1.0 1021588
18:00+15с5887100 1.0 1023431
21:00+11с4994100 1.1 1025270
11 мая, вт
вт1100:00+9ссв599794 0.0 1025228
03:00+8ссв499751 0.0 1026205
06:00+10св589021 0.0 1027269
09:00+16св56767 0.0 1028508
12:00+20св44615 0.0 1028924
15:00+22св44573 0.0 10271240
18:00+19св467110 0.0 1028228
21:00+15св47861 0.0 1028119
12 мая, ср
ср1200:00+13всв38890 0.0 1029131
03:00+12всв38900 0.0 1029129
06:00+15св488392 0.0 1029212
09:00+20в46580 0.0 1029801
12:00+24вюв46432 0.0 10282113
15:00+24юв45383 0.0 10272339
18:00+21юв345581 0.0 102764
21:00+16юв3561100 0.0 102763
13 мая, чт
чт1300:00+15юв33645 0.0 102828
03:00+13вюв336398 0.0 102826
06:00+15вюв37675 0.0 1028175
09:00+22юв464999 0.0 1027611
12:00+24юв56415 0.0 10261887
15:00+24ююв57395 0.0 10262007
18:00+21юв375558 0.0 1025174
21:00+16юв466526 0.0 102594
14 мая, пт
пт1400:00+16юв366895 0.1 1025103
03:00+15юв376876 0.1 1024119
06:00+17ююв497066 0.0 1024230
09:00+22ю574933 0.0 1024685
12:00+25ю57375 0.0 10221532
15:00+25ю574120 0.0 10221465
18:00+22ю59555 0.0 1021264
21:00+17ююв49720 0.0 1020137